Date String (YYYY-MM-DD hh:mm:ss) UTC,Instrument flags,Ambient pressure (hPa),Sample flow (lpm),Bypass flow (lpm),Sample temperature (°C),Ambient temperature (°C),ASC tube jacket temperature (°C),LED temperature (°C),Box temperature (°C),Sample RH (%),Mass concentration (μg/m³),Mass concentration (μg/m³)
DateTimeUTC,F1_M11,P_M11,Q1_M11,Q2_M11,T1_M11,T2_M11,T3_M11,T4_M11,T5_M11,U1_M11,X2_M11,X0_M11
2021-08-17 21:00:00,,0822.4,4.99,0.00,28.9,27.5,00.0,37.8,30.8,17.5,0018.45,0030.38
2021-08-17 21:01:00,,0822.5,5.02,0.00,28.9,27.8,00.0,37.9,30.9,17.4,0018.39,0030.06
2021-08-17 21:02:00,,0822.4,5.00,0.00,28.9,27.0,00.0,37.9,30.6,17.4,0018.30,0030.04
2021-08-17 21:03:00,,0822.4,5.01,0.00,28.8,25.7,00.0,37.8,30.2,17.3,0018.23,0029.75
2021-08-17 21:04:00,,0822.4,4.99,0.00,28.7,25.9,00.0,37.8,30.3,17.4,0018.22,0029.12
2021-08-17 21:05:00,,0822.4,5.00,0.00,28.7,26.4,00.0,37.8,30.4,17.7,0018.17,0028.27
2021-08-17 21:06:00,,0822.4,5.01,0.00,28.8,26.8,00.0,37.8,30.5,18.4,0018.12,0027.89
2021-08-17 21:07:00,,0822.4,4.99,0.00,28.8,27.1,00.0,37.8,30.6,18.3,0018.10,0027.41
2021-08-17 21:08:00,,0822.4,5.01,0.00,28.9,27.5,00.0,37.8,30.8,18.4,0018.09,0028.64
2021-08-17 21:09:00,,0822.4,4.99,0.00,28.9,27.4,00.0,37.8,30.8,18.3,0018.12,0028.55
2021-08-17 21:10:00,,0822.4,4.99,0.00,28.9,26.1,00.0,37.8,30.3,18.6,0018.12,0027.84
2021-08-17 21:11:00,,0822.4,5.01,0.00,28.7,25.7,00.0,37.8,30.1,18.3,0018.14,0027.73
2021-08-17 21:12:00,,0822.4,5.00,0.00,28.7,26.2,00.0,37.8,30.3,19.0,0018.21,0028.47
2021-08-17 21:13:00,,0822.3,4.99,0.00,28.7,26.6,00.0,37.8,30.4,18.1,0018.32,0028.45
2021-08-17 21:14:00,,0822.4,4.99,0.00,28.8,27.0,00.0,37.8,30.6,18.2,0018.44,0028.34
2021-08-17 21:15:00,,0822.4,5.00,0.00,28.8,27.4,00.0,37.8,30.7,18.5,0018.46,0028.01
2021-08-17 21:16:00,,0822.3,5.00,0.00,28.9,27.6,00.0,37.8,30.8,19.2,0018.47,0027.20
2021-08-17 21:17:00,,0822.3,5.00,0.00,28.9,26.8,00.0,37.8,30.5,19.1,0018.54,0027.79
2021-08-17 21:18:00,,0822.3,5.00,0.00,28.8,25.6,00.0,37.8,30.2,18.7,0018.57,0027.27
2021-08-17 21:19:00,,0822.3,5.00,0.00,28.7,25.9,00.0,37.8,30.2,19.2,0018.61,0025.90
2021-08-17 21:20:00,,0822.3,5.00,0.00,28.7,26.3,00.0,37.8,30.4,19.0,0018.58,0025.78
2021-08-17 21:21:00,,0822.3,5.01,0.00,28.7,26.7,00.0,37.8,30.5,19.1,0018.56,0025.88
2021-08-17 21:22:00,,0822.3,5.00,0.00,28.8,27.1,00.0,37.8,30.6,18.1,0018.59,0025.75
2021-08-17 21:23:00,,0822.3,5.01,0.00,28.9,27.4,00.0,37.8,30.8,18.5,0018.59,0025.16
2021-08-17 21:24:00,,0822.3,5.00,0.00,28.9,27.3,00.0,37.8,30.7,19.0,0018.57,0024.50
2021-08-17 21:25:00,,0822.2,5.01,0.00,28.8,25.9,00.0,37.8,30.2,19.0,0018.60,0024.58
2021-08-17 21:26:00,,0822.2,5.00,0.00,28.7,25.6,00.0,37.8,30.1,19.1,0018.70,0024.89
2021-08-17 21:27:00,,0822.2,5.00,0.00,28.7,26.0,00.0,37.8,30.3,18.1,0018.76,0025.15
2021-08-17 21:28:00,,0822.2,5.00,0.00,28.7,26.5,00.0,37.8,30.4,18.9,0018.76,0024.79
2021-08-17 21:29:00,,0822.2,5.00,0.00,28.7,26.9,00.0,37.8,30.5,18.9,0018.82,0025.75
2021-08-17 21:30:00,,0822.2,5.01,0.00,28.8,27.3,00.0,37.8,30.7,19.4,0018.89,0026.82
2021-08-17 21:31:00,,0822.2,4.99,0.00,28.9,27.6,00.0,37.8,30.8,19.2,0018.99,0027.84
2021-08-17 21:32:00,,0822.2,5.01,0.00,28.9,27.5,00.0,37.8,30.7,18.4,0019.07,0027.90
2021-08-17 21:33:00,,0822.2,5.00,0.00,28.8,26.0,00.0,37.8,30.3,18.9,0019.15,0028.69
2021-08-17 21:34:00,,0822.1,5.00,0.00,28.7,25.7,00.0,37.8,30.1,19.1,0019.23,0030.12
2021-08-17 21:35:00,,0822.1,5.00,0.00,28.7,26.1,00.0,37.8,30.3,19.5,0019.31,0030.86
2021-08-17 21:36:00,,0822.1,4.98,0.00,28.7,26.5,00.0,37.8,30.4,19.9,0019.30,0031.43
2021-08-17 21:37:00,,0822.1,5.01,0.00,28.7,27.0,00.0,37.8,30.6,19.9,0019.24,0031.07
2021-08-17 21:38:00,,0822.1,5.01,0.00,28.8,27.3,00.0,37.8,30.7,20.2,0019.28,0031.24
2021-08-17 21:39:00,,0822.1,5.00,0.00,28.9,27.7,00.0,37.8,30.8,19.7,0019.35,0031.94
2021-08-17 21:40:00,,0822.1,4.99,0.00,28.9,27.5,00.0,37.8,30.8,19.9,0019.40,0031.84
2021-08-17 21:41:00,,0822.0,4.99,0.00,28.8,26.0,00.0,37.8,30.3,19.9,0019.40,0031.32
2021-08-17 21:42:00,,0822.1,5.01,0.00,28.7,25.7,00.0,37.8,30.1,19.3,0019.37,0031.61
2021-08-17 21:43:00,,0822.1,5.00,0.00,28.7,26.1,00.0,37.8,30.3,18.8,0019.37,0031.96
2021-08-17 21:44:00,,0822.1,4.98,0.00,28.7,26.5,00.0,37.8,30.4,20.6,0019.34,0031.66
2021-08-17 21:45:00,,0822.1,5.01,0.00,28.7,26.9,00.0,37.8,30.5,19.1,0019.27,0030.67
2021-08-17 21:46:00,,0822.1,5.01,0.00,28.8,27.3,00.0,37.8,30.7,18.8,0019.21,0030.58
2021-08-17 21:47:00,,0822.1,5.00,0.00,28.9,27.6,00.0,37.8,30.8,18.2,0019.19,0029.90
2021-08-17 21:48:00,,0822.1,4.99,0.00,28.9,27.5,00.0,37.8,30.7,17.5,0019.19,0029.88
2021-08-17 21:49:00,,0822.0,5.01,0.00,28.8,26.1,00.0,37.8,30.2,17.5,0019.09,0029.54
2021-08-17 21:50:00,,0822.0,4.99,0.00,28.7,25.7,00.0,37.8,30.1,18.4,0019.03,0028.80
2021-08-17 21:51:00,,0822.0,5.00,0.00,28.7,26.2,00.0,37.8,30.3,19.4,0018.97,0028.08
2021-08-17 21:52:00,,0822.0,5.01,0.00,28.7,26.6,00.0,37.8,30.4,19.0,0018.92,0028.15
2021-08-17 21:53:00,,0822.0,4.99,0.00,28.7,26.9,00.0,37.8,30.5,18.7,0018.88,0027.34
2021-08-17 21:54:00,,0822.1,5.01,0.00,28.8,27.3,00.0,37.8,30.7,18.5,0018.83,0026.58
2021-08-17 21:55:00,,0822.1,5.00,0.00,28.9,27.5,00.0,37.8,30.8,19.4,0018.79,0026.27
2021-08-17 21:56:00,,0822.0,5.01,0.00,28.9,26.6,00.0,37.8,30.4,19.8,0018.77,0025.97
2021-08-17 21:57:00,,0822.1,5.00,0.00,28.7,25.6,00.0,37.8,30.1,19.8,0018.82,0026.26
2021-08-17 21:58:00,,0822.0,5.00,0.00,28.7,25.9,00.0,37.8,30.2,19.5,0018.85,0027.07
2021-08-17 21:59:00,,0822.1,5.00,0.00,28.7,26.3,00.0,37.8,30.4,18.8,0018.91,0027.94
